• In Belarus
  • List of Countries
  • For 7 days
  • Water Temperature
  • Satellite Maps
  • Weather Map
  • Weather Widgets
  • user-avatar
    Login

    Hourly Weather Gremyachiy

    Today, 23 July, Monday

    Time Temperature Precipitation Wind Pressure Humidity
    00:00 +19°C° 0 mm 4 mps 734 mmHg 96%
    01:00 +18°C° 0 mm 4 mps 734 mmHg 96%
    02:00 +18°C° 0 mm 3 mps 734 mmHg 97%
    03:00 +18°C° 0 mm 4 mps 734 mmHg 96%
    04:00 +18°C° 0 mm 4 mps 734 mmHg 96%
    05:00 +19°C° 0 mm 5 mps 734 mmHg 95%
    06:00 +19°C° 0 mm 5 mps 734 mmHg 94%
    07:00 +19°C° 0 mm 5 mps 734 mmHg 93%
    08:00 +20°C° 0 mm 5 mps 734 mmHg 91%
    09:00 +20°C° 0.1 mm 5 mps 734 mmHg 90%
    10:00 +21°C° 0.1 mm 5 mps 734 mmHg 89%
    11:00 +21°C° 0.1 mm 5 mps 734 mmHg 87%
    12:00 +21°C° 0.1 mm 5 mps 734 mmHg 86%
    13:00 +22°C° 0.1 mm 6 mps 734 mmHg 85%
    14:00 +22°C° 0.1 mm 6 mps 734 mmHg 84%
    15:00 +22°C° 0.3 mm 6 mps 734 mmHg 85%
    16:00 +22°C° 0.3 mm 5 mps 734 mmHg 86%
    17:00 +21°C° 0.3 mm 5 mps 734 mmHg 86%
    18:00 +21°C° 0.6 mm 5 mps 734 mmHg 89%
    19:00 +20°C° 0.6 mm 4 mps 734 mmHg 91%
    20:00 +20°C° 0.6 mm 4 mps 734 mmHg 94%
    21:00 +19°C° 0.6 mm 4 mps 735 mmHg 94%
    22:00 +19°C° 0.6 mm 4 mps 735 mmHg 95%
    23:00 +19°C° 0.6 mm 3 mps 735 mmHg 96%

    Tomorrow, 24 July, Tuesday

    Time Temperature Precipitation Wind Pressure Humidity
    00:00 +19°C° 0.2 mm 3 mps 735 mmHg 96%
    01:00 +19°C° 0.2 mm 3 mps 735 mmHg 97%
    02:00 +19°C° 0.2 mm 3 mps 735 mmHg 97%
    03:00 +19°C° 0.1 mm 3 mps 735 mmHg 97%
    04:00 +19°C° 0.1 mm 3 mps 735 mmHg 97%
    05:00 +19°C° 0.1 mm 3 mps 735 mmHg 97%
    06:00 +20°C° 0.1 mm 3 mps 736 mmHg 94%
    07:00 +21°C° 0.1 mm 3 mps 736 mmHg 92%
    08:00 +21°C° 0.1 mm 3 mps 736 mmHg 90%
    09:00 +24°C° 0.5 mm 3 mps 736 mmHg 85%
    10:00 +25°C° 0.5 mm 3 mps 737 mmHg 81%
    11:00 +26°C° 0.5 mm 3 mps 737 mmHg 76%
    12:00 +26°C° 0.5 mm 3 mps 737 mmHg 74%
    13:00 +27°C° 0.5 mm 3 mps 737 mmHg 72%
    14:00 +27°C° 0.5 mm 2 mps 737 mmHg 70%
    15:00 +27°C° 0.5 mm 2 mps 737 mmHg 72%
    16:00 +27°C° 0.5 mm 3 mps 737 mmHg 75%
    17:00 +27°C° 0.5 mm 3 mps 737 mmHg 77%
    18:00 +25°C° 0.4 mm 3 mps 737 mmHg 82%
    19:00 +24°C° 0.4 mm 3 mps 737 mmHg 86%
    20:00 +21°C° 0.4 mm 3 mps 738 mmHg 90%
    21:00 +21°C° 0.2 mm 3 mps 738 mmHg 91%
    22:00 +20°C° 0.2 mm 3 mps 738 mmHg 92%
    23:00 +20°C° 0.2 mm 2 mps 738 mmHg 93%

    Day after tomorrow, 25 July, Wednesday

    Time Temperature Precipitation Wind Pressure Humidity
    00:00 +20°C° 0 mm 3 mps 738 mmHg 94%
    01:00 +19°C° 0 mm 3 mps 738 mmHg 95%
    02:00 +19°C° 0 mm 3 mps 738 mmHg 96%
    03:00 +19°C° 0.1 mm 3 mps 738 mmHg 96%
    04:00 +19°C° 0.1 mm 4 mps 739 mmHg 96%
    05:00 +19°C° 0.1 mm 4 mps 739 mmHg 96%
    06:00 +20°C° 0 mm 4 mps 739 mmHg 93%
    07:00 +20°C° 0 mm 4 mps 739 mmHg 89%
    08:00 +21°C° 0 mm 4 mps 739 mmHg 86%
    09:00 +21°C° 0 mm 4 mps 739 mmHg 82%
    10:00 +22°C° 0 mm 5 mps 740 mmHg 77%
    11:00 +22°C° 0 mm 5 mps 740 mmHg 73%
    12:00 +22°C° 0 mm 5 mps 740 mmHg 73%
    13:00 +22°C° 0 mm 5 mps 740 mmHg 72%
    14:00 +23°C° 0 mm 5 mps 740 mmHg 72%
    15:00 +22°C° 0 mm 5 mps 740 mmHg 74%
    16:00 +21°C° 0 mm 4 mps 740 mmHg 77%
    17:00 +21°C° 0 mm 4 mps 740 mmHg 80%
    18:00 +20°C° 0 mm 3 mps 740 mmHg 84%
    19:00 +19°C° 0 mm 3 mps 740 mmHg 87%
    20:00 +18°C° 0 mm 2 mps 740 mmHg 91%
    21:00 +18°C° 0 mm 2 mps 740 mmHg 93%
    22:00 +17°C° 0 mm 2 mps 740 mmHg 95%
    23:00 +16°C° 0 mm 2 mps 740 mmHg 97%

    26 July, Thursday

    Time Temperature Precipitation Wind Pressure Humidity
    00:00 +16°C° 0 mm 2 mps 740 mmHg 97%
    01:00 +16°C° 0 mm 2 mps 740 mmHg 97%
    02:00 +16°C° 0 mm 2 mps 740 mmHg 98%
    03:00 +16°C° 0 mm 2 mps 740 mmHg 98%
    04:00 +17°C° 0 mm 2 mps 740 mmHg 98%
    05:00 +17°C° 0 mm 2 mps 740 mmHg 97%
    06:00 +18°C° 0 mm 2 mps 740 mmHg 95%
    07:00 +19°C° 0 mm 3 mps 740 mmHg 92%
    08:00 +20°C° 0 mm 3 mps 740 mmHg 89%
    09:00 +22°C° 0 mm 3 mps 740 mmHg 85%
    10:00 +24°C° 0 mm 3 mps 741 mmHg 80%
    11:00 +26°C° 0 mm 3 mps 741 mmHg 76%
    12:00 +27°C° 0 mm 4 mps 741 mmHg 73%
    13:00 +28°C° 0 mm 4 mps 741 mmHg 70%
    14:00 +29°C° 0 mm 4 mps 740 mmHg 67%
    15:00 +29°C° 0.1 mm 4 mps 740 mmHg 70%
    16:00 +28°C° 0.1 mm 4 mps 740 mmHg 72%
    17:00 +28°C° 0.1 mm 4 mps 740 mmHg 75%
    18:00 +27°C° 0.6 mm 4 mps 741 mmHg 79%
    19:00 +25°C° 0.6 mm 3 mps 741 mmHg 83%
    20:00 +24°C° 0.6 mm 3 mps 741 mmHg 88%
    21:00 +24°C° 0.2 mm 3 mps 741 mmHg 88%
    22:00 +22°C° 0.2 mm 3 mps 741 mmHg 89%
    23:00 +22°C° 0.2 mm 3 mps 741 mmHg 90%

    27 July, Friday

    Time Temperature Precipitation Wind Pressure Humidity
    00:00 +21°C° 0 mm 3 mps 741 mmHg 89%
    01:00 +21°C° 0 mm 3 mps 741 mmHg 88%
    02:00 +21°C° 0 mm 3 mps 741 mmHg 87%
    03:00 +20°C° 0 mm 4 mps 741 mmHg 87%
    04:00 +20°C° 0 mm 4 mps 741 mmHg 87%
    05:00 +20°C° 0 mm 4 mps 741 mmHg 87%
    06:00 +21°C° 0 mm 4 mps 742 mmHg 83%
    07:00 +22°C° 0 mm 4 mps 742 mmHg 79%
    08:00 +23°C° 0 mm 4 mps 742 mmHg 76%
    09:00 +26°C° 0 mm 5 mps 742 mmHg 73%
    10:00 +27°C° 0 mm 5 mps 742 mmHg 69%
    11:00 +28°C° 0 mm 5 mps 743 mmHg 66%
    12:00 +29°C° 0.2 mm 5 mps 742 mmHg 65%
    13:00 +29°C° 0.2 mm 6 mps 742 mmHg 63%
    14:00 +29°C° 0.2 mm 6 mps 742 mmHg 62%
    15:00 +29°C° 0.2 mm 5 mps 742 mmHg 66%
    16:00 +28°C° 0.2 mm 5 mps 742 mmHg 69%
    17:00 +28°C° 0.2 mm 4 mps 742 mmHg 73%
    18:00 +26°C° 0.2 mm 4 mps 742 mmHg 76%
    19:00 +25°C° 0.2 mm 3 mps 742 mmHg 80%
    20:00 +22°C° 0.2 mm 3 mps 743 mmHg 83%
    21:00 +22°C° 0 mm 3 mps 742 mmHg 85%
    22:00 +21°C° 0 mm 3 mps 742 mmHg 87%
    23:00 +21°C° 0 mm 3 mps 742 mmHg 88%

    28 July, Saturday

    Time Temperature Precipitation Wind Pressure Humidity
    00:00 +20°C° 0 mm 3 mps 742 mmHg 90%
    01:00 +20°C° 0 mm 3 mps 742 mmHg 91%
    02:00 +19°C° 0 mm 3 mps 742 mmHg 92%
    03:00 +19°C° 0 mm 3 mps 742 mmHg 91%
    04:00 +19°C° 0 mm 3 mps 742 mmHg 90%
    05:00 +19°C° 0 mm 3 mps 742 mmHg 89%
    06:00 +20°C° 0 mm 4 mps 742 mmHg 84%
    07:00 +22°C° 0 mm 5 mps 742 mmHg 79%
    08:00 +23°C° 0 mm 5 mps 742 mmHg 74%
    09:00 +26°C° 0 mm 6 mps 742 mmHg 70%
    10:00 +27°C° 0 mm 6 mps 742 mmHg 66%
    11:00 +28°C° 0 mm 6 mps 742 mmHg 62%
    12:00 +28°C° 0 mm 6 mps 742 mmHg 62%
    13:00 +28°C° 0 mm 6 mps 742 mmHg 61%
    14:00 +29°C° 0 mm 5 mps 742 mmHg 60%
    15:00 +28°C° 0 mm 5 mps 741 mmHg 65%
    16:00 +27°C° 0 mm 4 mps 741 mmHg 69%
    17:00 +26°C° 0 mm 4 mps 741 mmHg 73%
    18:00 +25°C° 0 mm 3 mps 741 mmHg 74%
    19:00 +24°C° 0 mm 3 mps 742 mmHg 74%
    20:00 +24°C° 0 mm 3 mps 742 mmHg 74%
    21:00 +22°C° 0 mm 3 mps 742 mmHg 75%
    22:00 +22°C° 0 mm 3 mps 742 mmHg 76%
    23:00 +21°C° 0 mm 3 mps 742 mmHg 76%
    Show more